Location: Unspecified
(0.0000°N, 0.0000°E)
Time: 08:35:01
(UTC+00:00)

TIGRISAT - Pass Details

Date: 15 December 2019
Orbit: 604 x 690 km, 97.7° (Epoch: 23 January)

Event Time Altitude Azimuth Distance (km) Brightness Sun altitude
Exits shadow 20:34:31 12° 199° (SSW) 1,856 ? -36.0°
Drops below altitude 10° 20:34:48 10° 199° (SSW) 1,971 ? -36.1°
Sets 20:36:58 0° 196° (SSW) 2,870 ? -36.6°
